Weather History for Vinton, IA

Change the Weather History Date:

Thursday, February 14, 2013

  Actual Average Record
Temperature  
Mean Temperature 30 °F -  
Max Temperature 38 °F 33 °F 64 °F (1954)
Min Temperature 21 °F 16 °F -16 °F (1951)
Degree Days  
Heating Degree Days 36    
Moisture  
Dew Point 25 °F    
Average Humidity 74    
Maximum Humidity 91    
Minimum Humidity 50    
Precipitation  
Precipitation 0.00 in - - ()
Sea Level Pressure  
Sea Level Pressure 29.86 in    
Wind  
Wind Speed 13 mph (WNW)    
Max Wind Speed 20 mph    
Max Gust Speed 32 mph    
Visibility 9 miles    
Events Snow    
Averages and records for this station are not official NWS values.
T = Trace of Precipitation, MM = Missing Value Source: NWS Daily Summary

Daily Weather History Graph

Daily Weather History Graph

Search for Another Location

Airport:

Trip Planner

Search our weather history database for the weather conditions in past years. The results will help you decide how hot, cold, wet, or windy it might be!

Date:

Astronomy

Feb. 14, 2013 Rise Set
Actual Time 7:05 AM CST 5:39 PM CST
Civil Twilight 6:36 AM CST 6:08 PM CST
Nautical Twilight 6:03 AM CST 6:41 PM CST
Astronomical Twilight 5:31 AM CST 7:13 PM CST
Moon 9:01 AM CST (2/14) 10:50 PM CST (2/14)
Length of Visible Light 11h 32m
Length of Day
10h 34m
Waxing Crescent, 22% of the Moon is Illuminated
Feb 14
Waxing Crescent
Feb 17
First Quarter
Feb 25
Full
Mar 4
Last Quarter
Mar 11
New

Hourly Weather History & Observations

Time (CST) Temp. Windchill Dew Point Humidity Pressure Visibility Wind Dir Wind Speed Gust Speed Precip Events Conditions
12:15 AM 35.6 °F 28.6 °F 26.6 °F 70% 29.65 in 10.0 mi WSW 9.2 mph - N/A   Clear
12:35 AM 36.9 °F 28.7 °F 28.0 °F 70% 29.65 in 10.0 mi West 12.7 mph 16.1 mph N/A   Clear
12:55 AM 35.1 °F 27.9 °F 27.3 °F 73% 29.65 in 10.0 mi West 9.2 mph 16.1 mph N/A   Clear
1:15 AM 34.9 °F 26.6 °F 28.2 °F 77% 29.65 in 10.0 mi West 11.5 mph - N/A   Clear
1:35 AM 34.9 °F 26.6 °F 28.4 °F 77% 29.65 in 10.0 mi West 11.5 mph 18.4 mph N/A   Clear
1:55 AM 34.9 °F 26.2 °F 28.9 °F 79% 29.65 in 10.0 mi West 12.7 mph 19.6 mph N/A   Clear
2:15 AM 34.9 °F 26.2 °F 29.3 °F 80% 29.66 in 10.0 mi West 12.7 mph 17.3 mph N/A   Clear
2:35 AM 34.9 °F 25.7 °F 29.3 °F 80% 29.65 in 10.0 mi West 13.8 mph 18.4 mph N/A   Scattered Clouds
2:55 AM 34.9 °F 26.6 °F 29.3 °F 80% 29.66 in 10.0 mi West 11.5 mph 18.4 mph N/A   Overcast
3:15 AM 34.9 °F 26.6 °F 28.4 °F 77% 29.66 in 10.0 mi West 11.5 mph 18.4 mph N/A   Overcast
3:35 AM 34.9 °F 25.7 °F 28.8 °F 78% 29.65 in 10.0 mi West 13.8 mph 19.6 mph N/A   Overcast
3:55 AM 34.9 °F 26.2 °F 28.4 °F 77% 29.66 in 10.0 mi West 12.7 mph 21.9 mph N/A   Overcast
4:15 AM 34.9 °F 25.3 °F 28.4 °F 77% 29.67 in 10.0 mi West 15.0 mph 19.6 mph N/A   Overcast
4:35 AM 34.9 °F 24.6 °F 28.2 °F 77% 29.68 in 10.0 mi WNW 17.3 mph 28.8 mph N/A   Overcast
4:55 AM 33.6 °F 23.3 °F 26.2 °F 74% 29.69 in 10.0 mi WNW 16.1 mph 27.6 mph N/A   Overcast
5:15 AM 32.4 °F 22.5 °F 25.7 °F 76% 29.70 in 10.0 mi WNW 13.8 mph 23.0 mph N/A   Overcast
5:35 AM 32.4 °F 20.6 °F 25.9 °F 77% 29.71 in 10.0 mi WNW 19.6 mph 27.6 mph N/A   Overcast
6:15 AM 32.4 °F 22.1 °F 26.4 °F 79% 29.72 in 10.0 mi WNW 15.0 mph 24.2 mph N/A   Overcast
6:35 AM 32.4 °F 20.6 °F 26.6 °F 79% 29.73 in 10.0 mi WNW 19.6 mph 25.3 mph N/A   Overcast
6:55 AM 32.4 °F 21.7 °F 26.6 °F 79% 29.74 in 10.0 mi NW 16.1 mph 23.0 mph N/A   Overcast
7:15 AM 32.4 °F 21.3 °F 26.4 °F 79% 29.75 in 10.0 mi NW 17.3 mph 32.2 mph N/A   Overcast
7:35 AM 32.4 °F 20.9 °F 25.7 °F 76% 29.76 in 10.0 mi NW 18.4 mph 25.3 mph N/A   Overcast
7:55 AM 32.4 °F 22.1 °F 25.7 °F 76% 29.77 in 10.0 mi NW 15.0 mph 23.0 mph N/A   Overcast
8:15 AM 32.4 °F 22.1 °F 25.5 °F 76% 29.79 in 10.0 mi NW 15.0 mph 21.9 mph N/A   Overcast
8:35 AM 32.4 °F 22.5 °F 25.3 °F 75% 29.80 in 10.0 mi NNW 13.8 mph 19.6 mph N/A   Overcast
8:55 AM 32.4 °F 21.7 °F 24.6 °F 73% 29.81 in 10.0 mi NNW 16.1 mph 23.0 mph N/A   Overcast
9:15 AM 33.3 °F 23.7 °F 25.2 °F 72% 29.83 in 10.0 mi NNW 13.8 mph 24.2 mph N/A   Overcast
9:35 AM 34.5 °F 26.7 °F 25.3 °F 69% 29.84 in 10.0 mi NNW 10.4 mph 24.2 mph N/A   Mostly Cloudy
9:55 AM 34.9 °F 26.6 °F 25.7 °F 69% 29.84 in 10.0 mi NW 11.5 mph 17.3 mph N/A   Mostly Cloudy
10:15 AM 34.9 °F 25.3 °F 25.0 °F 67% 29.85 in 10.0 mi NW 15.0 mph 23.0 mph N/A   Mostly Cloudy
10:35 AM 36.9 °F 28.7 °F 25.9 °F 64% 29.86 in 10.0 mi NW 12.7 mph 19.6 mph N/A   Mostly Cloudy
10:55 AM 37.4 °F 27.8 °F 25.7 °F 63% 29.87 in 10.0 mi WNW 17.3 mph 21.9 mph N/A   Mostly Cloudy
11:15 AM 37.2 °F 27.6 °F 25.0 °F 61% 29.88 in 10.0 mi WNW 17.3 mph 24.2 mph N/A   Scattered Clouds
11:35 AM 37.4 °F 28.9 °F 24.6 °F 60% 29.88 in 10.0 mi WNW 13.8 mph 23.0 mph N/A   Scattered Clouds
11:55 AM 37.4 °F 28.9 °F 24.6 °F 60% 29.88 in 10.0 mi NW 13.8 mph 23.0 mph N/A   Scattered Clouds
12:15 PM 37.4 °F 27.5 °F 24.4 °F 60% 29.88 in 10.0 mi WNW 18.4 mph - N/A   Mostly Cloudy
12:35 PM 37.4 °F 28.5 °F 23.0 °F 56% 29.88 in 10.0 mi WNW 15.0 mph 19.6 mph N/A   Scattered Clouds
12:55 PM 37.4 °F 30.3 °F 25.3 °F 62% 29.88 in 10.0 mi NW 10.4 mph - N/A   Scattered Clouds
1:15 PM 38.7 °F 30.9 °F 25.0 °F 58% 29.89 in 10.0 mi West 12.7 mph 20.7 mph N/A   Scattered Clouds
1:35 PM 37.4 °F 29.3 °F 23.7 °F 58% 29.89 in 10.0 mi WNW 12.7 mph - N/A   Scattered Clouds
1:55 PM 35.6 °F 29.2 °F 24.3 °F 63% 29.89 in 10.0 mi West 8.1 mph 19.6 mph N/A   Mostly Cloudy
2:15 PM 35.8 °F 26.9 °F 25.3 °F 66% 29.90 in 10.0 mi West 13.8 mph 19.6 mph N/A   Mostly Cloudy
2:35 PM 35.8 °F 26.9 °F 25.0 °F 65% 29.91 in 10.0 mi WNW 13.8 mph - N/A   Mostly Cloudy
2:55 PM 36.9 °F 28.7 °F 27.1 °F 68% 29.91 in 10.0 mi West 12.7 mph 20.7 mph N/A   Mostly Cloudy
3:15 PM 34.9 °F 25.7 °F 25.9 °F 70% 29.92 in 10.0 mi WNW 13.8 mph 20.7 mph N/A   Scattered Clouds
3:35 PM 34.9 °F 26.6 °F 27.0 °F 73% 29.93 in 10.0 mi West 11.5 mph 16.1 mph N/A   Scattered Clouds
3:55 PM 32.9 °F 24.1 °F 25.5 °F 74% 29.94 in 7.0 mi West 11.5 mph 17.3 mph N/A Snow Light Snow
4:15 PM 32.4 °F 24.6 °F 25.9 °F 77% 29.95 in 7.0 mi WNW 9.2 mph - N/A Snow Light Snow
4:35 PM 32.4 °F 24.6 °F 27.3 °F 82% 29.95 in 3.0 mi West 9.2 mph - N/A Snow Light Snow
4:55 PM 32.4 °F 24.0 °F 28.4 °F 85% 29.96 in 4.0 mi NW 10.4 mph - N/A Snow Light Snow
5:15 PM 32.4 °F 24.6 °F 28.0 °F 84% 29.96 in 4.0 mi NW 9.2 mph - N/A Snow Light Snow
5:35 PM 30.2 °F 22.6 °F 26.6 °F 86% 29.97 in 3.0 mi WNW 8.1 mph - N/A Snow Light Snow
5:55 PM 30.2 °F 21.3 °F 27.5 °F 90% 29.98 in 2.5 mi WNW 10.4 mph - N/A Snow Light Snow
6:15 PM 30.2 °F 21.3 °F 27.9 °F 91% 29.99 in 2.5 mi NW 10.4 mph - N/A Snow Light Snow
6:35 PM 30.2 °F 22.6 °F 27.5 °F 90% 30.00 in 7.0 mi NW 8.1 mph - N/A Snow Light Snow
6:55 PM 29.8 °F 20.9 °F 27.1 °F 90% 30.01 in 10.0 mi WNW 10.4 mph - N/A   Mostly Cloudy
7:15 PM 27.5 °F 18.6 °F 24.6 °F 89% 30.02 in 10.0 mi WNW 9.2 mph - N/A   Scattered Clouds
7:35 PM 27.5 °F 18.6 °F 24.6 °F 89% 30.02 in 10.0 mi WNW 9.2 mph - N/A   Clear
7:55 PM 27.5 °F 17.4 °F 24.4 °F 88% 30.02 in 10.0 mi NW 11.5 mph 16.1 mph N/A   Clear
8:15 PM 27.5 °F 19.3 °F 24.3 °F 88% 30.02 in 10.0 mi NW 8.1 mph - N/A   Clear
8:35 PM 27.5 °F 18.0 °F 23.2 °F 84% 30.03 in 10.0 mi NW 10.4 mph - N/A   Clear
8:55 PM 27.5 °F 16.8 °F 21.6 °F 78% 30.04 in 10.0 mi NNW 12.7 mph 18.4 mph N/A   Clear
9:15 PM 27.5 °F 15.4 °F 20.8 °F 76% 30.05 in 10.0 mi NNW 16.1 mph - N/A   Clear
9:35 PM 27.5 °F 16.8 °F 20.5 °F 75% 30.07 in 10.0 mi NNW 12.7 mph 19.6 mph N/A   Scattered Clouds
9:55 PM 26.6 °F 14.7 °F 18.1 °F 70% 30.07 in 10.0 mi NNW 15.0 mph 25.3 mph N/A   Mostly Cloudy
10:15 PM 25.2 °F 12.9 °F 17.1 °F 71% 30.08 in 10.0 mi NNW 15.0 mph 19.6 mph N/A   Scattered Clouds
10:35 PM 25.2 °F 13.3 °F 16.7 °F 70% 30.09 in 10.0 mi NNW 13.8 mph 19.6 mph N/A   Clear
10:55 PM 25.2 °F 12.4 °F 16.3 °F 69% 30.09 in 10.0 mi NNW 16.1 mph 24.2 mph N/A   Mostly Cloudy
11:15 PM 22.6 °F 8.3 °F 6.6 °F 50% 30.10 in 10.0 mi North 18.4 mph 26.5 mph N/A   Scattered Clouds
11:35 PM 21.6 °F 7.3 °F 6.4 °F 52% 30.11 in 10.0 mi NNW 17.3 mph 24.2 mph N/A   Clear
11:55 PM 21.4 °F 8.0 °F 6.4 °F 53% 30.12 in 10.0 mi North 15.0 mph 24.2 mph N/A   Clear